TimeEDT,TemperatureF,Dew PointF,Humidity,Sea Level PressureIn,VisibilityMPH,Wind Direction,Wind SpeedMPH,Gust SpeedMPH,PrecipitationIn,Events,Conditions,WindDirDegrees,DateUTC
12:00 AM,19.4,15.8,86,30.34,9.0,South,9.2,-,N/A,,Overcast,180,2012-10-21 04:00:00
1:00 AM,19.4,15.8,86,30.33,9.0,South,8.1,-,N/A,,Overcast,190,2012-10-21 05:00:00
1:07 AM,19.4,15.8,86,30.31,9.0,South,8.1,-,N/A,,Mostly Cloudy,190,2012-10-21 05:07:00
1:34 AM,19.4,15.8,86,30.34,9.0,South,9.2,-,N/A,,Overcast,180,2012-10-21 05:34:00
1:59 AM,19.4,15.8,86,30.34,9.0,SSE,9.2,-,N/A,Snow,Light Snow,160,2012-10-21 05:59:00
2:00 AM,19,15,80,30.37,9,South,9.2,,,,Overcast,170,2012-10-21 06:00:00
2:39 AM,19.4,15.8,86,30.36,9.0,SSE,11.5,-,N/A,Snow,Light Snow,160,2012-10-21 06:39:00
2:50 AM,19.4,15.8,86,30.36,9.0,SSE,10.4,-,N/A,,Overcast,160,2012-10-21 06:50:00
3:00 AM,19.4,14.0,80,30.38,9.0,SSE,12.7,-,N/A,,Overcast,160,2012-10-21 07:00:00
4:00 AM,19.4,14.0,80,30.40,9.0,SSE,10.4,-,N/A,,Overcast,150,2012-10-21 08:00:00
4:12 AM,19.4,14.0,80,30.38,9.0,SSE,11.5,-,N/A,Snow,Light Snow,160,2012-10-21 08:12:00
4:28 AM,19.4,14.0,80,30.38,9.0,SSE,11.5,-,N/A,,Overcast,160,2012-10-21 08:28:00
5:00 AM,19,14,73,30.41,9,SSE,11.5,,,,Overcast,160,2012-10-21 09:00:00
5:00 AM,19.4,14.0,80,30.41,9.0,SSE,10.4,-,N/A,,Overcast,160,2012-10-21 09:00:00
6:00 AM,17.6,14.0,86,30.43,9.0,SSE,10.4,-,N/A,,Overcast,160,2012-10-21 10:00:00
7:00 AM,19.4,14.0,80,30.44,9.0,SSE,8.1,-,N/A,,Overcast,160,2012-10-21 11:00:00
8:00 AM,18,14,76,30.45,9,SSE,8.1,,,,Overcast,160,2012-10-21 12:00:00
8:00 AM,17.6,14.0,86,30.45,9.0,SSE,8.1,-,N/A,,Overcast,150,2012-10-21 12:00:00
8:16 AM,17.6,14.0,86,30.43,9.0,SSE,8.1,-,N/A,Snow,Light Snow,160,2012-10-21 12:16:00
9:00 AM,19.4,14.0,80,30.46,9.0,SSE,6.9,-,N/A,Snow,Light Snow,160,2012-10-21 13:00:00
9:04 AM,19.4,14.0,80,30.44,9.0,SSE,6.9,-,N/A,,Overcast,150,2012-10-21 13:04:00
9:14 AM,17.6,14.0,86,30.44,9.0,SSE,8.1,-,N/A,Snow,Light Snow,160,2012-10-21 13:14:00
9:58 AM,17.6,14.0,86,30.45,2.5,South,8.1,-,N/A,Snow,Light Snow,170,2012-10-21 13:58:00
10:00 AM,17.6,14.0,86,30.47,1.8,South,8.1,-,N/A,Snow,Light Snow,170,2012-10-21 14:00:00
10:03 AM,19.4,14.0,80,30.43,1.5,SSE,8.1,-,N/A,Snow,Light Snow,160,2012-10-21 14:03:00
10:05 AM,19.4,14.0,80,30.44,1.5,SSE,8.1,-,N/A,Snow,Light Snow,160,2012-10-21 14:05:00
10:19 AM,17.6,14.0,86,30.45,9.0,South,8.1,-,N/A,Snow,Light Snow,170,2012-10-21 14:19:00
10:36 AM,17.6,14.0,86,30.46,4.0,SSE,8.1,-,N/A,Snow,Light Snow,160,2012-10-21 14:36:00
11:00 AM,18,14,78,30.48,7,SSE,6.9,,,Snow,Light Snow,160,2012-10-21 15:00:00
11:00 AM,17.6,14.0,86,30.48,7.0,SSE,6.9,-,N/A,Snow,Light Snow,160,2012-10-21 15:00:00
11:54 AM,17.6,14.0,86,30.45,9.0,SSE,6.9,-,N/A,,Overcast,160,2012-10-21 15:54:00
12:00 PM,17.6,14.0,86,30.49,9.0,SSE,8.1,-,N/A,,Overcast,160,2012-10-21 16:00:00
12:27 PM,17.6,14.0,86,30.47,9.0,SSE,8.1,-,N/A,Snow,Light Snow,160,2012-10-21 16:27:00
1:00 PM,17.6,14.0,86,30.50,9.0,South,8.1,-,N/A,Snow,Light Snow,170,2012-10-21 17:00:00
2:00 PM,18,13,75,30.51,6,South,9.2,,,,Overcast,170,2012-10-21 18:00:00
2:00 PM,17.6,14.0,86,30.51,6.0,SSE,8.1,-,N/A,Snow,Light Snow,160,2012-10-21 18:00:00
3:00 PM,17.6,12.2,79,30.51,9.0,SSE,10.4,-,N/A,Snow,Light Snow,160,2012-10-21 19:00:00
4:00 PM,17.6,12.2,79,30.53,9.0,SSE,9.2,-,N/A,Snow,Light Snow,160,2012-10-21 20:00:00
5:00 PM,17,12,73,30.53,7,South,9.2,,,Snow,Light Snow,170,2012-10-21 21:00:00
5:00 PM,17.6,12.2,79,30.53,8.0,South,8.1,-,N/A,Snow,Light Snow,170,2012-10-21 21:00:00
5:11 PM,17.6,12.2,79,30.51,3.5,South,10.4,-,N/A,Snow,Light Snow,170,2012-10-21 21:11:00
5:19 PM,15.8,12.2,86,30.51,2.4,SSE,10.4,-,N/A,Snow,Light Snow,160,2012-10-21 21:19:00
5:23 PM,15.8,12.2,86,30.51,1.4,South,10.4,-,N/A,Snow,Light Snow,170,2012-10-21 21:23:00
5:41 PM,15.8,12.2,86,30.51,2.0,SSE,9.2,-,N/A,Snow,Light Snow,160,2012-10-21 21:41:00
5:54 PM,15.8,12.2,86,30.51,2.5,SSE,10.4,-,N/A,Snow,Light Snow,160,2012-10-21 21:54:00
5:55 PM,15.8,12.2,86,30.51,7.0,SSE,10.4,-,N/A,Snow,Light Snow,160,2012-10-21 21:55:00
6:00 PM,15.8,12.2,86,30.54,8.0,SSE,10.4,-,N/A,Snow,Light Snow,160,2012-10-21 22:00:00
7:00 PM,15.8,10.4,79,30.55,4.0,South,12.7,-,N/A,Snow,Light Snow,170,2012-10-21 23:00:00
7:17 PM,15.8,10.4,79,30.52,9.0,SSE,11.5,-,N/A,,Overcast,160,2012-10-21 23:17:00
7:22 PM,15.8,10.4,79,30.52,9.0,SSE,10.4,-,N/A,Snow,Light Snow,160,2012-10-21 23:22:00
8:00 PM,15,10,71,30.54,7,SSE,11.5,,,,Overcast,160,2012-10-22 00:00:00
8:00 PM,15.8,10.4,79,30.54,8.0,SSE,11.5,-,N/A,Snow,Light Snow,160,2012-10-22 00:00:00
8:07 PM,14.0,10.4,86,30.52,9.0,SSE,10.4,-,N/A,,Overcast,160,2012-10-22 00:07:00
8:40 PM,15.8,10.4,79,30.52,9.0,SSE,11.5,-,N/A,Snow,Light Snow,160,2012-10-22 00:40:00
9:00 PM,15.8,10.4,79,30.55,9.0,South,10.4,-,N/A,Snow,Light Snow,170,2012-10-22 01:00:00
9:54 PM,15.8,10.4,79,30.52,9.0,South,11.5,-,N/A,Snow,Light Snow,170,2012-10-22 01:54:00
10:00 PM,15.8,10.4,79,30.55,9.0,South,11.5,-,N/A,Snow,Light Snow,170,2012-10-22 02:00:00
10:48 PM,15.8,10.4,79,30.53,5.0,SSE,11.5,-,N/A,Snow,Light Snow,160,2012-10-22 02:48:00
11:00 PM,16,10,69,30.55,9,South,10.4,,,Snow,Light Snow,170,2012-10-22 03:00:00
11:00 PM,15.8,10.4,79,30.55,9.0,South,10.4,-,N/A,Snow,Light Snow,170,2012-10-22 03:00:00
11:12 PM,15.8,10.4,79,30.53,9.0,SSE,9.2,-,N/A,,Overcast,160,2012-10-22 03:12:00
11:21 PM,15.8,10.4,79,30.53,9.0,South,11.5,-,N/A,Snow,Light Snow,170,2012-10-22 03:21:00